Vertical_Velocity
-4 -3 1 -0 1 -2 -1 -1 -0 1 -3 -5 -4 -1 -0 -1 0 1 1 -2 2 -0 2 2 2 2 2 3 0 -0 1 1 1 1 1 1 1 1 1 1 -1 -1 1
-1 -0 -0 1 -1 1 0 -1 -1 -0 -1 -1 -0 -2 -2 -1 -1 -2 -1 3 -0 3 -1 2 -0 -1 2 2 1 0 -1 -1 0 -0 0 -2 -0 -1 1 0 -1 -1 -2
-2 0 3 -0 1 0 -1 -1 -2 -2 -2 0 1 1 -0 -2 -6 -2 0 -1 2 -1 1 -0 2 2 -1 -1 2 -1 3 -0 -1 -0 -2 -1 -1 -0 -1 0 -2 3 -2
-2 -4 -1 -2 -2 0 -1 1 0 0 -1 -2 1 1 -1 -1 0 -4 -4 -0 -1 2 0 2 1 3 2 2 -1 -1 0 1 -1 1 2 2 0 -1 -1 -2 -0 2 1
1 -1 -3 -1 -1 0 0 -3 0 1 1 0 -1 1 1 1 2 1 -4 -5 -2 1 1 4 -1 0 1 -0 -1 2 3 -1 -1 -1 -8 -10 1 -1 1 -1 -1 -0 1
-20 -6 -5 -4 -2 -1 -0 1 -2 -1 -1 -0 -2 -0 -2 -4 1 2 -1 2 -1 -4 -2 -1 0 0 0 0 2 -1 1 -1 1 2 11 -5 2 1 -0 -1 -1 -1 1
-1 4 8 4 2 -1 -4 -4 -1 -2 -2 2 -0 0 2 -2 1 1 6 4 -0 -0 0 -2 -3 -1 1 -2 -2 1 -0 -1 3 2 3 -10 -0 7 -1 1 -2 1 0
0 1 1 -0 -0 -0 2 2 1 0 -1 -3 1 -1 4 1 3 4 3 1 3 0 -1 -1 -0 -3 -2 2 -1 -0 0 1 -1 -2 1 8 -5 1 6 -0 0 -1 -2
-0 -1 1 -1 -1 -0 2 -1 -0 -1 0 0 -2 -0 0 1 3 -3 4 -0 2 3 0 2 0 4 1 -5 -2 -1 -1 3 -0 -0 2 7 -3 2 2 -0 4 -0 -1
1 -0 -1 -0 -0 -1 -0 -0 -1 -2 1 -1 1 2 0 2 -1 0 -1 3 0 -2 3 0 1 -3 0 -0 -3 -1 -2 -2 1 -0 6 -10 -1 -1 -1 0 -1 5 1
-0 -1 -2 -2 -1 -2 -3 -2 -2 -1 -2 -1 -2 0 1 2 5 3 -1 0 1 -2 -2 0 -3 0 -1 -0 -0 -1 -1 -3 -1 1 11 -9 2 -1 -3 2 -2 2 7
0 0 0 0 -0 -1 -1 0 -0 1 -1 0 -1 -2 1 1 2 20 27 16 1 3 4 2 5 -2 -1 0 0 -3 2 4 1 -0 6 -6 2 1 0 1 -2 1 1
-4 -3 -1 -3 -1 -1 -2 -2 -0 -0 0 0 0 1 1 0 1 2 6 7 7 18 9 0 2 1 -2 2 2 -9 -4 -4 3 2 17 -6 3 -0 2 1 -1 -2 1
-0 -0 -1 -2 -1 -0 -2 1 0 -1 -1 -2 -1 -2 -2 -2 -1 -1 -1 -1 4 -3 15 7 -1 5 0 -1 -3 5 -8 -1 1 -0 -5 5 2 1 0 1 1 -4 -2
-1 0 0 0 -0 0 1 0 0 -1 -1 -0 -1 -2 -0 0 -2 0 -1 -1 -5 -5 6 9 10 10 5 4 -10 -15 -0 -3 2 -7 32 -2 2 3 3 -0 1 2 -4
-2 -1 -2 -3 -2 -4 -3 -3 -2 -1 0 -1 -0 -1 -2 -1 -2 -0 0 -0 1 -3 -4 -6 -12 34 -2 12 4 16 8 -3 -6 -4 5 -0 -1 11 2 2 3 0 0
-1 -1 -3 -3 -3 -2 -1 -2 -3 -4 -3 -1 -0 -0 -2 -2 -0 0 -1 -2 -2 -1 2 -5 -4 -3 -2 10 24 7 18 -13 -2 3 5 11 2 -1 1 0 3 5 -1
-3 -2 -2 -1 -3 -3 -5 -5 -3 -3 -3 -6 -5 -1 -1 4 -2 -1 1 3 -2 -1 -5 -0 -4 -3 -3 3 3 -6 1 -1 -13 124 4 7 -1 -3 6 -4 3 1 2
-2 -3 -3 -2 -3 -4 -4 -5 -6 -6 -7 -5 -3 -5 -7 3 -0 3 1 -1 -1 2 2 -3 -5 0 -2 2 6 2 -10 -3 -1 -24 -0 -8 -23 -6 -10 -1 3 -2 5
0 1 0 -2 -2 -2 -3 -3 -3 -0 1 -2 -4 -5 -3 -4 -1 2 3 2 3 2 2 0 -3 -1 -6 -0 0 -1 -7 -4 -14 -5 -6 3 8 -35 0 -13 8 2 -2
-2 -3 -4 -3 -3 -3 -3 -3 -0 -1 -3 -3 -2 -3 -4 -5 -7 -5 -0 -1 3 3 1 1 0 -2 1 0 1 -1 -4 -0 -6 -1 5 -7 -2 -2 0 -12 -7 -7 3
-2 -3 -4 -4 -4 -4 -3 -2 -5 -5 -1 -5 -4 -3 -0 -6 -3 -3 -4 -1 2 -2 3 5 2 -0 -6 5 -1 2 -1 -4 3 -2 -9 2 -4 1 1 1 11 -7 -0
-3 -3 -3 -3 -3 -3 -4 -3 -2 -3 -2 -3 -2 -2 -5 -5 0 -0 -3 -2 -1 -2 -3 -0 5 1 -2 -2 5 -0 3 -12 8 -8 2 -7 -2 1 6 -2 -3 6 -6
-1 -1 -1 -2 -3 -4 -4 -3 -3 -7 -3 -1 -2 1 -0 -1 -4 -4 0 0 -3 -1 1 2 4 -0 -1 -2 2 7 2 6 -5 -3 -8 -7 3 0 2 4 -8 -4 3
-2 -4 -4 -5 -5 -4 -3 -4 -8 -5 -7 -5 -5 -2 -2 2 1 -0 -3 0 2 2 0 3 5 0 -1 3 2 6 3 -1 3 0 -6 -2 14 6 6 2 7 3 5
-2 -2 -3 -2 -4 -2 -4 -4 -5 -7 -4 -3 -2 -3 -2 -2 -1 0 -1 0 0 1 4 -2 -0 1 2 1 0 5 1 -9 -8 4 1 2 7 -2 3 3 6 6 -4
Height
3159 3159 3160 3161 3161 3161 3161 3161 3161 3161 3160 3160 3159 3158 3157 3157 3157 3157 3156 3155 3155 3155 3155 3154 3154 3155 3155 3155 3155 3155 3155 3155 3155 3155 3156 3156 3156 3156 3156 3156 3155 3156 3156
3159 3159 3159 3160 3160 3160 3160 3160 3159 3159 3159 3158 3159 3159 3157 3156 3156 3156 3155 3155 3155 3154 3154 3154 3154 3155 3155 3154 3154 3155 3155 3155 3155 3156 3156 3156 3156 3156 3156 3156 3156 3156 3157
3158 3159 3159 3159 3159 3159 3158 3158 3158 3157 3157 3157 3157 3158 3157 3157 3155 3155 3155 3155 3154 3154 3154 3153 3154 3155 3155 3154 3154 3153 3154 3155 3155 3155 3155 3155 3156 3156 3157 3157 3157 3156 3157
3158 3158 3158 3158 3158 3158 3157 3157 3156 3156 3156 3156 3156 3155 3155 3155 3155 3155 3154 3153 3153 3154 3153 3153 3153 3154 3154 3153 3153 3153 3153 3153 3154 3154 3154 3155 3155 3156 3157 3157 3157 3158 3158
3157 3157 3157 3158 3158 3157 3156 3155 3155 3154 3154 3154 3154 3153 3153 3153 3153 3153 3153 3153 3153 3152 3152 3152 3152 3152 3152 3152 3152 3152 3153 3153 3153 3153 3153 3152 3154 3154 3155 3156 3157 3157 3158
3153 3156 3156 3157 3157 3156 3155 3154 3154 3153 3153 3152 3151 3151 3151 3152 3152 3152 3151 3152 3152 3151 3151 3150 3151 3151 3150 3150 3150 3150 3151 3152 3153 3153 3152 3152 3153 3152 3154 3155 3156 3156 3157
3155 3157 3157 3156 3155 3155 3155 3154 3152 3152 3151 3149 3149 3148 3148 3148 3150 3149 3150 3150 3150 3150 3150 3149 3149 3149 3149 3149 3148 3148 3149 3150 3151 3152 3153 3150 3150 3152 3152 3153 3154 3155 3157
3155 3155 3155 3154 3154 3154 3153 3152 3151 3149 3148 3147 3145 3145 3145 3145 3144 3146 3148 3147 3147 3147 3147 3147 3147 3147 3146 3146 3146 3146 3146 3147 3148 3149 3150 3150 3148 3150 3152 3152 3153 3154 3155
3154 3154 3153 3152 3151 3151 3150 3149 3147 3146 3145 3143 3142 3141 3141 3142 3142 3142 3142 3144 3144 3144 3144 3144 3144 3144 3144 3144 3143 3143 3143 3144 3145 3146 3148 3149 3145 3147 3149 3149 3151 3152 3153
3150 3150 3150 3150 3149 3148 3147 3145 3143 3141 3140 3139 3138 3137 3136 3137 3138 3139 3139 3139 3141 3140 3141 3141 3141 3141 3140 3141 3141 3141 3141 3141 3142 3142 3145 3144 3144 3145 3146 3147 3148 3149 3150
3148 3147 3147 3146 3145 3144 3142 3141 3139 3137 3135 3134 3133 3133 3134 3133 3134 3133 3133 3133 3134 3136 3136 3137 3137 3137 3136 3136 3137 3138 3138 3138 3139 3139 3141 3140 3141 3142 3143 3143 3144 3146 3148
3144 3144 3143 3142 3141 3139 3137 3135 3134 3132 3131 3130 3129 3129 3129 3128 3128 3128 3127 3127 3127 3129 3130 3130 3131 3132 3132 3133 3134 3134 3134 3135 3135 3135 3137 3136 3138 3139 3140 3141 3142 3142 3144
3141 3140 3138 3137 3136 3134 3133 3132 3130 3129 3127 3126 3126 3125 3124 3124 3124 3123 3123 3123 3123 3123 3123 3124 3125 3126 3126 3128 3129 3128 3130 3130 3131 3132 3133 3133 3135 3136 3137 3138 3139 3140 3140
3136 3135 3134 3133 3132 3130 3129 3128 3127 3125 3124 3123 3122 3121 3120 3120 3119 3119 3118 3118 3117 3118 3118 3118 3118 3119 3120 3121 3122 3124 3122 3125 3126 3127 3127 3127 3130 3131 3133 3134 3135 3137 3138
3132 3131 3130 3129 3128 3127 3126 3125 3124 3122 3121 3119 3118 3116 3116 3115 3114 3113 3113 3113 3112 3112 3110 3110 3110 3109 3111 3113 3112 3115 3118 3118 3122 3123 3123 3122 3125 3126 3128 3130 3131 3133 3134
3129 3128 3127 3126 3125 3123 3122 3121 3119 3117 3116 3114 3113 3111 3110 3109 3108 3107 3107 3106 3106 3104 3105 3105 3102 3093 3103 3102 3105 3106 3109 3109 3114 3117 3119 3117 3118 3121 3123 3125 3127 3128 3131
3125 3123 3122 3121 3120 3118 3116 3115 3113 3111 3110 3108 3106 3104 3102 3101 3100 3099 3100 3099 3098 3096 3097 3096 3096 3096 3098 3097 3097 3098 3097 3099 3097 3105 3110 3113 3111 3114 3116 3119 3121 3122 3125
3120 3118 3116 3115 3113 3112 3110 3108 3106 3104 3103 3100 3098 3095 3092 3091 3090 3090 3090 3089 3088 3089 3088 3088 3089 3088 3089 3089 3091 3090 3092 3090 3088 3075 3098 3103 3105 3107 3112 3113 3115 3117 3119
3115 3113 3111 3109 3107 3105 3103 3101 3098 3096 3093 3091 3089 3086 3082 3081 3078 3077 3077 3077 3077 3078 3078 3078 3079 3079 3081 3082 3083 3082 3083 3082 3081 3089 3091 3095 3097 3102 3102 3105 3108 3110 3112
3109 3106 3104 3101 3099 3097 3094 3092 3088 3086 3082 3080 3077 3075 3072 3069 3067 3064 3063 3063 3063 3064 3066 3067 3066 3068 3069 3072 3073 3073 3076 3075 3076 3077 3079 3086 3086 3089 3096 3098 3099 3101 3105
3102 3100 3097 3095 3092 3089 3085 3082 3079 3075 3072 3069 3065 3062 3059 3057 3055 3052 3051 3049 3049 3049 3050 3053 3054 3055 3058 3061 3061 3062 3066 3066 3067 3069 3072 3074 3073 3081 3086 3090 3091 3093 3097
3097 3094 3091 3087 3083 3080 3076 3071 3067 3063 3060 3056 3053 3048 3046 3042 3040 3038 3037 3036 3036 3035 3035 3038 3040 3042 3044 3050 3050 3051 3053 3057 3057 3060 3063 3062 3065 3070 3073 3078 3084 3085 3088
3091 3088 3085 3080 3076 3071 3067 3061 3056 3052 3047 3042 3038 3034 3030 3026 3025 3023 3021 3020 3020 3020 3021 3023 3025 3027 3030 3036 3039 3040 3042 3043 3049 3048 3052 3054 3057 3060 3064 3069 3075 3079 3081
3086 3083 3079 3074 3069 3063 3057 3051 3045 3040 3035 3029 3024 3019 3015 3012 3009 3007 3005 3004 3003 3003 3004 3007 3011 3012 3015 3019 3028 3029 3031 3036 3038 3039 3040 3044 3048 3051 3055 3060 3064 3067 3072
3081 3078 3074 3069 3063 3057 3051 3043 3037 3030 3024 3017 3010 3004 2999 2996 2993 2990 2988 2986 2986 2987 2989 2991 2994 2998 3002 3005 3012 3017 3021 3025 3028 3030 3032 3038 3038 3042 3045 3047 3052 3056 3061
3076 3073 3069 3064 3058 3051 3043 3037 3028 3021 3013 3006 2998 2991 2986 2982 2979 2977 2973 2971 2970 2970 2973 2976 2979 2982 2986 2990 2997 3002 3007 3012 3017 3019 3021 3024 3029 3030 3035 3036 3040 3046 3050